When you browse on this site, cookies collect data to enhance your experience and personalize the content and advertising you see.
Visit our Privacy Policy to learn more. By continuing to use the site, you agree to this use of cookies and data.
  • In France
  • List of Countries
  • For 7 days
  • Water Temperature
  • Weather Map
  • Weather Widgets
  • user-avatar
    Login

    Hourly Weather Kurytyba

    Today, 7 December, Saturday

    Time Temperature Precipitation Wind Pressure Humidity
    00:00 +18°C° 0 mm 1 mps 680 mmHg 92%
    01:00 +18°C° 0 mm 1 mps 680 mmHg 91%
    02:00 +18°C° 0 mm 1 mps 679 mmHg 90%
    03:00 +18°C° 0 mm 1 mps 679 mmHg 88%
    04:00 +16°C° 0 mm 0 mps 680 mmHg 89%
    05:00 +15°C° 0 mm 0 mps 680 mmHg 90%
    06:00 +15°C° 0 mm 0 mps 680 mmHg 91%
    07:00 +17°C° 0 mm 0 mps 681 mmHg 79%
    08:00 +22°C° 0 mm 1 mps 681 mmHg 66%
    09:00 +24°C° 0 mm 1 mps 682 mmHg 54%
    10:00 +25°C° 0 mm 1 mps 682 mmHg 50%
    11:00 +26°C° 0 mm 1 mps 682 mmHg 45%
    12:00 +28°C° 0 mm 1 mps 682 mmHg 40%
    13:00 +27°C° 0 mm 2 mps 681 mmHg 44%
    14:00 +26°C° 0 mm 2 mps 681 mmHg 47%
    15:00 +25°C° 0 mm 2 mps 680 mmHg 51%
    16:00 +24°C° 0 mm 2 mps 680 mmHg 53%
    17:00 +22°C° 0 mm 3 mps 680 mmHg 56%
    18:00 +21°C° 0 mm 3 mps 680 mmHg 58%
    19:00 +19°C° 0 mm 3 mps 680 mmHg 66%
    20:00 +18°C° 0 mm 3 mps 680 mmHg 73%
    21:00 +16°C° 0 mm 2 mps 680 mmHg 81%
    22:00 +16°C° 0 mm 2 mps 681 mmHg 84%
    23:00 +15°C° 0 mm 2 mps 681 mmHg 88%

    Tomorrow, 8 December, Sunday

    Time Temperature Precipitation Wind Pressure Humidity
    00:00 +15°C° 0 mm 1 mps 681 mmHg 91%
    01:00 +15°C° 0 mm 1 mps 680 mmHg 92%
    02:00 +15°C° 0 mm 1 mps 680 mmHg 93%
    03:00 +14°C° 0 mm 1 mps 680 mmHg 93%
    04:00 +14°C° 0 mm 1 mps 680 mmHg 93%
    05:00 +14°C° 0 mm 1 mps 681 mmHg 92%
    06:00 +14°C° 0 mm 1 mps 681 mmHg 91%
    07:00 +16°C° 0 mm 1 mps 681 mmHg 78%
    08:00 +20°C° 0 mm 1 mps 682 mmHg 64%
    09:00 +21°C° 0 mm 2 mps 683 mmHg 51%
    10:00 +23°C° 0 mm 2 mps 683 mmHg 46%
    11:00 +25°C° 0 mm 2 mps 683 mmHg 41%
    12:00 +27°C° 0 mm 2 mps 683 mmHg 36%
    13:00 +27°C° 0 mm 2 mps 682 mmHg 38%
    14:00 +27°C° 0 mm 2 mps 682 mmHg 39%
    15:00 +27°C° 0 mm 2 mps 681 mmHg 40%
    16:00 +26°C° 0 mm 2 mps 681 mmHg 48%
    17:00 +24°C° 0 mm 2 mps 681 mmHg 56%
    18:00 +21°C° 0 mm 3 mps 680 mmHg 64%
    19:00 +20°C° 0 mm 2 mps 680 mmHg 70%
    20:00 +18°C° 0 mm 2 mps 680 mmHg 76%
    21:00 +16°C° 0 mm 2 mps 680 mmHg 81%
    22:00 +16°C° 0 mm 1 mps 681 mmHg 81%
    23:00 +15°C° 0 mm 1 mps 681 mmHg 81%

    Day after tomorrow, 9 December, Monday

    Time Temperature Precipitation Wind Pressure Humidity
    00:00 +15°C° 0 mm 1 mps 681 mmHg 81%
    01:00 +15°C° 0 mm 1 mps 681 mmHg 75%
    02:00 +15°C° 0 mm 1 mps 680 mmHg 69%
    03:00 +14°C° 0 mm 0 mps 680 mmHg 63%
    04:00 +14°C° 0 mm 0 mps 680 mmHg 60%
    05:00 +14°C° 0 mm 0 mps 680 mmHg 58%
    06:00 +15°C° 0 mm 0 mps 681 mmHg 56%
    07:00 +17°C° 0 mm 0 mps 681 mmHg 49%
    08:00 +20°C° 0 mm 0 mps 682 mmHg 41%
    09:00 +23°C° 0 mm 0 mps 682 mmHg 34%
    10:00 +25°C° 0 mm 0 mps 682 mmHg 30%
    11:00 +27°C° 0 mm 0 mps 683 mmHg 27%
    12:00 +29°C° 0 mm 0 mps 683 mmHg 23%
    13:00 +31°C° 0 mm 1 mps 682 mmHg 25%
    14:00 +31°C° 0 mm 1 mps 682 mmHg 26%
    15:00 +31°C° 0 mm 2 mps 681 mmHg 28%
    16:00 +29°C° 0 mm 2 mps 681 mmHg 38%
    17:00 +27°C° 0 mm 2 mps 680 mmHg 48%
    18:00 +25°C° 0 mm 2 mps 680 mmHg 58%
    19:00 +23°C° 0 mm 2 mps 680 mmHg 66%
    20:00 +20°C° 0 mm 2 mps 681 mmHg 74%
    21:00 +19°C° 0 mm 1 mps 681 mmHg 83%
    22:00 +19°C° 0 mm 1 mps 681 mmHg 84%
    23:00 +18°C° 0 mm 1 mps 680 mmHg 85%

    10 December, Tuesday

    Time Temperature Precipitation Wind Pressure Humidity
    00:00 +15°C° 0 mm 0 mps 680 mmHg 86%
    01:00 +15°C° 0 mm 0 mps 680 mmHg 84%
    02:00 +15°C° 0 mm 0 mps 680 mmHg 81%
    03:00 +15°C° 0 mm 0 mps 679 mmHg 79%
    04:00 +15°C° 0 mm 0 mps 680 mmHg 79%
    05:00 +15°C° 0 mm 0 mps 680 mmHg 80%
    06:00 +15°C° 0 mm 0 mps 680 mmHg 80%
    07:00 +19°C° 0 mm 1 mps 681 mmHg 73%
    08:00 +22°C° 0 mm 1 mps 681 mmHg 66%
    09:00 +24°C° 0 mm 1 mps 682 mmHg 59%
    10:00 +26°C° 0 mm 1 mps 682 mmHg 52%
    11:00 +29°C° 0 mm 1 mps 682 mmHg 44%
    12:00 +31°C° 0 mm 1 mps 682 mmHg 37%
    13:00 +30°C° 0 mm 2 mps 682 mmHg 38%
    14:00 +30°C° 0 mm 2 mps 681 mmHg 40%
    15:00 +30°C° 0 mm 2 mps 680 mmHg 41%
    16:00 +28°C° 0.1 mm 2 mps 680 mmHg 50%
    17:00 +27°C° 0.1 mm 2 mps 680 mmHg 58%
    18:00 +25°C° 0.1 mm 2 mps 679 mmHg 66%
    19:00 +23°C° 0 mm 2 mps 679 mmHg 74%
    20:00 +21°C° 0 mm 2 mps 679 mmHg 81%
    21:00 +20°C° 0 mm 1 mps 679 mmHg 89%
    22:00 +19°C° 0 mm 1 mps 679 mmHg 90%
    23:00 +19°C° 0 mm 1 mps 679 mmHg 91%

    11 December, Wednesday

    Time Temperature Precipitation Wind Pressure Humidity
    00:00 +19°C° 0 mm 1 mps 679 mmHg 92%
    01:00 +18°C° 0 mm 1 mps 679 mmHg 92%
    02:00 +18°C° 0 mm 1 mps 679 mmHg 93%
    03:00 +18°C° 0 mm 1 mps 678 mmHg 93%
    04:00 +16°C° 0 mm 0 mps 679 mmHg 93%
    05:00 +16°C° 0 mm 0 mps 679 mmHg 93%
    06:00 +16°C° 0 mm 0 mps 679 mmHg 92%
    07:00 +18°C° 0 mm 0 mps 679 mmHg 82%
    08:00 +23°C° 0 mm 1 mps 680 mmHg 71%
    09:00 +25°C° 0 mm 1 mps 681 mmHg 60%
    10:00 +27°C° 0 mm 1 mps 681 mmHg 53%
    11:00 +29°C° 0 mm 1 mps 681 mmHg 47%
    12:00 +32°C° 0 mm 1 mps 681 mmHg 40%
    13:00 +31°C° 0.1 mm 1 mps 680 mmHg 41%
    14:00 +31°C° 0.1 mm 1 mps 679 mmHg 42%
    15:00 +31°C° 0.1 mm 1 mps 678 mmHg 43%
    16:00 +29°C° 0.4 mm 1 mps 678 mmHg 53%
    17:00 +27°C° 0.4 mm 2 mps 677 mmHg 63%
    18:00 +25°C° 0.4 mm 2 mps 677 mmHg 74%
    19:00 +24°C° 0.2 mm 2 mps 677 mmHg 79%
    20:00 +22°C° 0.2 mm 1 mps 677 mmHg 85%
    21:00 +21°C° 0.2 mm 1 mps 677 mmHg 90%
    22:00 +21°C° 0 mm 1 mps 677 mmHg 91%
    23:00 +20°C° 0 mm 1 mps 677 mmHg 92%

    12 December, Thursday

    Time Temperature Precipitation Wind Pressure Humidity
    00:00 +20°C° 0 mm 1 mps 677 mmHg 93%
    01:00 +20°C° 0 mm 1 mps 677 mmHg 93%
    02:00 +20°C° 0 mm 1 mps 676 mmHg 93%
    03:00 +20°C° 0 mm 1 mps 676 mmHg 93%
    04:00 +20°C° 0 mm 1 mps 676 mmHg 94%
    05:00 +20°C° 0 mm 1 mps 676 mmHg 95%
    06:00 +20°C° 0 mm 1 mps 676 mmHg 95%
    07:00 +20°C° 0 mm 2 mps 676 mmHg 90%
    08:00 +23°C° 0 mm 2 mps 677 mmHg 84%
    09:00 +24°C° 0 mm 3 mps 677 mmHg 79%
    10:00 +26°C° 0 mm 3 mps 677 mmHg 71%
    11:00 +27°C° 0 mm 3 mps 677 mmHg 63%
    12:00 +29°C° 0 mm 3 mps 677 mmHg 55%
    13:00 +28°C° 1.9 mm 3 mps 676 mmHg 62%
    14:00 +28°C° 1.9 mm 3 mps 676 mmHg 69%
    15:00 +27°C° 1.9 mm 3 mps 675 mmHg 77%
    16:00 +26°C° 2.7 mm 3 mps 675 mmHg 80%
    17:00 +24°C° 2.7 mm 2 mps 675 mmHg 84%
    18:00 +23°C° 2.7 mm 2 mps 675 mmHg 88%
    19:00 +23°C° 0.2 mm 2 mps 675 mmHg 88%
    20:00 +22°C° 0.2 mm 1 mps 675 mmHg 89%
    21:00 +22°C° 0.2 mm 1 mps 676 mmHg 90%
    22:00 +21°C° 0 mm 1 mps 676 mmHg 91%
    23:00 +21°C° 0 mm 1 mps 676 mmHg 92%
    Show more